CAPE
630 683 728 809 908 936 965 968 1032 1050 1102 1200 1177 1240 1389 1282 1249 1070 688 449 231 139 51 32 10 22 0 0 0 0 0 0 0 0 0 0 0 9 1 26 2 0 0
582 688 761 859 954 944 911 995 1067 1007 1127 1199 1215 1177 1293 1251 1217 1155 888 540 415 275 190 22 3 0 0 6 0 0 0 0 0 31 0 0 0 16 39 51 19 0 0
702 735 909 947 1053 1041 1043 1105 1160 1086 1135 1171 1286 1202 1139 1343 1244 1144 1112 853 597 478 325 92 21 11 0 0 0 0 0 27 2 0 0 10 19 19 12 3 11 0 0
701 753 910 1026 1114 1163 1150 1205 1206 1203 1125 1109 1196 1279 1227 1240 1254 1141 1120 1046 875 678 460 325 159 78 10 39 25 2 85 46 47 32 10 6 37 41 12 11 22 29 4
708 753 855 1037 1230 1268 1254 1267 1290 1335 1167 1131 1103 1232 1275 1264 1250 1061 1093 1123 981 845 633 483 409 274 96 97 67 99 67 37 40 29 10 26 53 27 39 57 20 33 71
646 707 892 1196 1306 1230 1250 1284 1315 1351 1350 1242 1105 1135 1225 1170 1046 898 1112 1118 1055 965 862 708 619 355 98 12 0 102 200 79 99 21 0 34 162 86 29 51 7 35 64
634 812 1039 1228 1257 1302 1360 1394 1361 1390 1473 1374 1174 1190 1205 1298 808 635 764 1205 1161 1131 1064 972 907 717 317 231 13 2 6 46 113 399 149 284 373 73 2 29 60 59 98
754 938 1118 1234 1269 1384 1406 1337 1380 1429 1454 1519 1468 1263 1278 1390 929 621 597 1084 1325 1321 1228 1162 1151 1057 711 603 290 72 85 197 90 76 449 643 385 31 31 83 76 184 178
802 928 1032 1099 1221 1431 1438 1446 1517 1484 1452 1448 1628 1679 1468 1482 987 746 659 917 1328 1497 1363 1297 1263 1208 957 480 426 388 395 505 333 120 200 159 1 0 41 86 76 77 44
843 954 1142 1332 1290 1367 1433 1527 1746 1775 1661 1621 1567 1746 1734 1613 1248 764 750 1193 1267 1568 1481 1297 870 1070 794 419 574 712 763 563 352 48 19 0 0 0 0 39 30 7 0
939 1423 1577 1554 1545 1622 1702 1726 1734 1880 1956 1981 1939 1912 1996 1818 1875 889 686 1318 1552 1452 1288 1124 1009 624 540 239 313 698 733 613 200 119 0 0 0 0 0 0 0 0 0
1220 1504 1732 1860 1847 1830 1912 1846 1691 1893 1996 2002 1965 1325 398 1303 1488 774 573 807 1292 1216 1076 905 832 545 392 148 86 435 127 96 44 0 0 0 0 0 0 0 0 0 0
1003 1364 1725 2028 2145 2187 1928 1557 1115 1081 2101 2000 1920 606 828 2027 1760 945 716 602 652 713 488 541 413 262 140 90 31 22 0 2 0 0 0 0 0 0 0 0 0 0 0
1190 1424 1841 2071 2322 2492 2461 2470 2351 2366 2258 2273 2144 2401 2351 2259 1505 524 345 205 14 74 0 0 0 25 82 33 0 0 0 0 0 0 0 0 0 0 0 0 0 0 0
1046 1323 1599 1651 1506 1346 1329 1949 2333 1734 2368 2667 2671 2589 2480 1893 546 254 234 18 1 0 0 0 0 0 0 0 0 0 2 0 0 0 0 0 0 0 0 0 0 0 0
1002 844 756 820 942 1093 1022 679 1 112 498 954 1139 1187 576 210 2 1 0 0 0 0 0 20 0 38 23 0 0 0 2 0 0 0 0 0 0 0 0 0 0 0 0
988 828 678 738 851 691 470 408 93 0 0 0 0 0 0 0 0 0 0 0 0 0 0 0 20 28 6 0 0 0 0 0 0 0 0 0 0 0 0 0 0 0 0
836 815 849 810 830 645 258 117 0 0 0 0 0 0 0 0 0 0 0 0 0 2 5 0 0 24 3 1 0 0 0 0 0 0 0 0 0 0 0 0 0 0 0
458 408 625 595 336 107 3 0 0 0 0 0 0 0 0 0 0 0 0 2 1 8 3 2 2 1 0 0 0 0 0 0 0 0 0 0 0 0 0 0 0 0 0
133 50 170 49 4 17 100 46 77 29 3 1 0 0 0 0 0 0 1 1 3 5 1 11 10 1 0 0 0 0 0 0 0 0 0 0 0 0 0 0 0 0 0
17 5 0 82 55 31 3 0 0 1 0 1 0 0 0 1 0 2 2 3 3 1 3 7 1 0 0 0 0 0 0 0 0 0 0 0 0 0 0 0 0 0 0
88 29 21 1 1 2 4 5 5 1 0 0 0 3 0 4 5 3 5 6 6 3 0 0 0 0 0 0 0 0 0 0 0 0 0 0 0 0 0 0 0 0 0
230 226 185 59 2 1 4 3 1 1 2 1 4 3 1 0 2 1 0 0 0 0 0 0 0 0 0 0 0 0 0 0 0 0 0 0 0 0 0 0 0 0 0
60 93 31 36 30 19 1 0 0 0 1 1 1 0 0 0 0 0 0 0 0 0 0 0 0 0 0 0 0 0 0 0 0 0 0 0 0 0 0 0 0 0 0
6 0 0 8 27 18 37 2 0 0 0 0 1 1 0 0 0 0 0 0 0 0 0 0 0 0 0 0 0 0 0 0 0 0 0 0 0 0 0 0 0 0 0
5 0 0 0 1 4 2 0 0 0 0 0 0 0 0 26 15 7 1 0 0 0 0 0 0 0 0 0 0 0 0 0 0 0 0 0 0 0 0 0 0 0 0
CIN
-412 -372 -330 -313 -288 -245 -201 -171 -146 -128 -98 -74 -91 -78 -75 -89 -96 -124 -177 -206 -254 -286 -346 -347 -356 -318 -0 -0 -0 -0 -0 -0 -0 -0 -0 -0 -0 -86 -26 -220 -47 -0 -0
-479 -428 -400 -368 -342 -301 -268 -225 -160 -169 -130 -109 -103 -114 -105 -116 -118 -131 -160 -216 -232 -277 -295 -372 -169 -21 -0 -217 -0 -0 -0 -0 -0 -95 -0 -0 -0 -141 -96 -101 -38 -0 -0
-534 -491 -453 -435 -411 -391 -335 -280 -217 -200 -177 -131 -122 -130 -144 -127 -139 -172 -159 -184 -222 -240 -268 -359 -375 -402 -0 -20 -0 -0 -11 -170 -121 -0 -0 -188 -147 -146 -121 -8 -32 -0 -0
-578 -558 -514 -494 -482 -462 -398 -339 -285 -249 -221 -193 -174 -150 -155 -161 -166 -188 -190 -191 -202 -224 -257 -291 -324 -370 -407 -372 -326 -136 -190 -199 -167 -173 -202 -183 -188 -176 -61 -35 -26 -43 -62
-586 -601 -574 -591 -539 -491 -448 -406 -366 -318 -287 -235 -214 -194 -178 -180 -205 -236 -222 -218 -217 -225 -259 -286 -274 -313 -375 -364 -308 -242 -244 -211 -160 -189 -210 -126 -108 -46 -28 -34 -34 -39 -26
-583 -566 -613 -633 -601 -580 -531 -476 -432 -368 -321 -309 -271 -264 -245 -259 -287 -318 -243 -239 -235 -236 -229 -247 -251 -342 -417 -474 -0 -275 -184 -193 -131 -140 -0 -70 -30 -63 -41 -20 -41 -33 -6
-584 -601 -637 -666 -664 -660 -595 -517 -485 -431 -368 -336 -329 -307 -288 -296 -384 -425 -371 -249 -244 -235 -224 -218 -206 -215 -350 -333 -289 -373 -358 -278 -159 -41 -47 -13 -5 -54 -68 -27 -15 -14 -9
-649 -622 -640 -645 -657 -632 -577 -581 -550 -500 -450 -393 -366 -372 -336 -334 -423 -497 -460 -271 -233 -249 -251 -215 -172 -158 -249 -233 -297 -368 -338 -214 -201 -121 -17 -11 -12 -42 -39 -14 -12 -10 -11
-617 -623 -630 -654 -658 -634 -621 -626 -594 -530 -517 -495 -414 -370 -393 -375 -508 -533 -505 -342 -253 -261 -293 -236 -205 -195 -221 -301 -250 -217 -173 -83 -79 -119 -62 -51 -4 -0 -56 -16 -8 -11 -1
-558 -585 -627 -673 -669 -654 -652 -647 -551 -494 -497 -443 -477 -421 -399 -392 -500 -639 -582 -351 -282 -229 -252 -239 -289 -176 -244 -356 -246 -159 -62 -66 -95 -192 -181 -0 -0 -6 -0 -29 -6 -10 -0
-545 -598 -630 -628 -599 -546 -424 -370 -317 -251 -192 -199 -181 -164 -189 -232 -315 -623 -668 -361 -250 -240 -246 -284 -263 -333 -310 -333 -312 -126 -80 -42 -126 -69 -0 -0 -0 -0 -0 -0 -0 -0 -0
-591 -574 -556 -549 -515 -455 -391 -346 -290 -146 -142 -100 -48 -313 -461 -252 -250 -429 -632 -461 -217 -203 -229 -208 -234 -285 -295 -309 -242 -163 -185 -150 -163 -8 -0 -0 -0 -0 -0 -0 -0 -0 -0
-586 -561 -546 -502 -438 -363 -387 -433 -523 -287 -15 -199 -147 -482 -488 -244 -249 -406 -491 -453 -314 -225 -319 -217 -242 -242 -246 -371 -177 -203 -34 -92 -9 -0 -0 -0 -0 -0 -0 -0 -0 -0 -0
-500 -521 -504 -456 -400 -326 -297 -265 -270 -227 -222 -150 -190 -159 -154 -151 -232 -555 -642 -610 -556 -373 -0 -0 -0 -70 -84 -201 -0 -0 -0 -0 -22 -0 -0 -0 -0 -0 -0 -0 -0 -0 -0
-555 -548 -529 -554 -570 -580 -549 -366 -251 -354 -190 -116 -120 -95 -108 -176 -572 -759 -733 -782 -0 -0 -0 -0 -0 -0 -0 -0 -0 -0 -0 -0 -0 -0 -0 -0 -0 -0 -0 -0 -0 -0 -0
-560 -647 -705 -709 -683 -602 -608 -669 -0 -521 -654 -486 -382 -310 -522 -753 -228 -0 -0 -0 -0 -0 -0 -3 -0 -26 -91 -58 -0 -0 -0 -0 -0 -0 -0 -0 -0 -0 -0 -0 -0 -0 -0
-553 -636 -687 -661 -607 -613 -652 -633 -719 -0 -0 -0 -31 -30 -0 -0 -0 -0 -0 -0 -0 -0 -0 -0 -19 -41 -74 -5 -8 -0 -0 -0 -0 -0 -0 -0 -0 -0 -0 -0 -0 -0 -0
-572 -582 -558 -535 -486 -509 -592 -619 -0 -0 -0 -0 -0 -0 -0 -0 -0 -0 -0 -0 -0 -0 -0 -0 -0 -53 -0 -198 -0 -0 -0 -0 -0 -0 -0 -0 -0 -0 -0 -0 -0 -0 -0
-565 -559 -478 -447 -494 -556 -453 -0 -0 -0 -0 -0 -0 -0 -0 -0 -0 -0 -0 -0 -0 -89 -1 -0 -0 -0 -0 -0 -0 -0 -0 -0 -0 -0 -0 -0 -0 -0 -0 -0 -0 -0 -0
-529 -615 -451 -576 -627 -382 -350 -468 -424 -478 -31 -0 -0 -0 -0 -0 -0 -0 -0 -0 -32 -142 -35 -74 -81 -28 -0 -0 -0 -0 -0 -0 -0 -0 -0 -0 -0 -0 -0 -0 -0 -0 -0
-504 -324 -0 -386 -354 -359 -453 -0 -0 -0 -0 -0 -0 -0 -0 -0 -0 -0 -0 -0 -0 -0 -3 -72 -0 -0 -0 -0 -0 -0 -0 -0 -0 -0 -0 -0 -0 -0 -0 -0 -0 -0 -0
-256 -274 -270 -0 -0 -0 -0 -0 -0 -0 -0 -0 -0 -0 -0 -0 -0 -0 -0 -23 -66 -0 -0 -0 -0 -0 -0 -0 -0 -0 -0 -0 -0 -0 -0 -0 -0 -0 -0 -0 -0 -0 -0
-48 -80 -83 -174 -0 -0 -0 -0 -0 -0 -0 -0 -0 -0 -0 -0 -0 -0 -0 -0 -0 -0 -0 -0 -0 -0 -0 -0 -0 -0 -0 -0 -0 -0 -0 -0 -0 -0 -0 -0 -0 -0 -0
-65 -80 -91 -92 -108 -118 -49 -0 -0 -0 -0 -0 -0 -0 -0 -0 -0 -0 -0 -0 -0 -0 -0 -0 -0 -0 -0 -0 -0 -0 -0 -0 -0 -0 -0 -0 -0 -0 -0 -0 -0 -0 -0
-86 -0 -0 -68 -77 -74 -52 -102 -0 -0 -0 -0 -85 -0 -0 -0 -0 -0 -0 -0 -0 -0 -0 -0 -0 -0 -0 -0 -0 -0 -0 -0 -0 -0 -0 -0 -0 -0 -0 -0 -0 -0 -0
-34 -0 -0 -0 -45 -95 -102 -0 -80 -0 -0 -0 -0 -0 -48 -108 -137 -176 -113 -0 -0 -0 -0 -0 -0 -0 -0 -0 -0 -0 -0 -0 -0 -0 -0 -0 -0 -0 -0 -0 -0 -0 -0
Wind_Speed
26 24 23 24 24 20 17 14 13 12 11 11 11 11 10 12 12 13 14 13 13 11 8 7 8 8 8 8 8 8 7 8 8 10 8 8 7 7 8 7 6 6 7
26 25 25 23 23 24 24 20 15 14 13 13 14 14 14 13 12 14 16 16 14 12 9 6 6 6 6 5 5 5 5 5 6 8 8 6 5 6 6 8 8 10 11
22 24 24 25 24 24 25 22 20 19 18 15 15 17 17 16 13 13 16 16 17 13 10 8 7 5 4 4 4 3 3 4 4 7 9 8 9 9 8 9 11 12 14
21 22 23 25 26 23 23 23 22 21 20 19 18 18 19 18 16 14 14 14 15 14 12 9 7 6 5 4 3 2 1 1 2 3 6 8 8 9 9 9 12 14 17
21 22 26 23 23 21 24 24 23 23 23 22 19 20 20 20 19 18 16 15 14 13 11 11 9 9 8 5 3 3 2 2 2 4 8 9 9 10 12 14 14 17 20
23 27 24 21 20 24 25 25 24 24 24 23 23 23 23 23 24 23 19 17 15 15 13 11 11 11 10 9 8 6 5 5 5 6 8 11 12 11 14 15 17 18 22
22 22 20 20 22 24 23 22 23 23 21 25 25 24 27 27 26 27 25 20 18 17 16 15 14 12 12 10 10 10 9 9 7 8 10 11 14 13 15 16 15 17 20
20 18 18 20 22 21 20 22 23 22 24 23 25 26 27 27 27 28 27 23 22 21 20 19 18 17 15 13 13 12 12 11 11 10 11 13 14 16 14 16 17 17 18
18 20 23 23 20 19 20 21 21 20 22 24 23 23 25 26 27 29 26 25 27 25 23 22 21 20 18 15 14 14 14 13 13 11 13 15 15 14 12 14 16 17 19
17 22 19 19 21 22 23 23 21 21 21 21 22 23 24 26 27 29 29 28 30 29 27 26 24 23 21 18 16 14 16 15 13 12 12 14 14 12 10 11 14 17 19
16 17 17 19 22 26 29 30 30 29 34 31 27 28 34 38 32 29 31 31 32 32 31 30 29 25 23 21 17 15 14 12 9 10 10 12 12 10 9 10 12 14 17
17 17 18 20 21 21 21 23 25 30 29 35 26 21 19 31 28 33 30 32 33 34 35 35 31 26 24 21 17 16 10 10 12 10 11 11 9 9 9 10 11 13 14
16 15 13 14 15 15 18 19 22 24 27 25 28 32 26 22 25 29 28 29 31 34 25 29 26 26 25 19 23 16 9 8 10 9 9 10 8 7 8 10 11 12 12
16 15 14 16 15 17 16 20 21 17 18 22 22 25 25 24 24 22 24 25 27 25 21 20 13 11 19 22 20 12 10 7 8 7 8 7 7 6 8 9 10 11 13
14 14 14 15 16 18 20 22 20 21 22 21 23 25 25 27 26 26 23 20 18 19 31 20 24 22 22 16 19 12 9 7 7 6 5 5 4 5 8 9 10 10 12
12 13 13 14 16 17 18 19 20 19 20 22 23 24 26 23 20 19 18 17 13 18 27 34 24 26 17 13 15 8 9 8 6 3 3 2 4 6 7 9 10 10 11
11 11 11 12 14 15 16 17 18 19 20 20 18 15 15 15 15 15 15 16 19 15 16 11 14 18 21 12 9 7 7 7 5 3 1 3 3 5 5 8 9 9 10
14 13 15 15 15 15 16 16 14 16 19 19 18 15 14 10 10 15 16 15 14 11 8 2 11 8 16 5 7 6 3 5 3 1 1 2 3 4 4 7 8 9 9
17 18 17 16 14 13 12 13 13 15 17 16 17 17 16 12 13 12 7 10 6 5 5 7 7 10 6 5 5 4 4 3 2 1 2 2 2 3 5 6 8 9 12
18 17 16 13 13 13 14 16 19 21 20 17 14 12 8 8 11 5 2 3 3 4 4 8 8 5 4 4 4 4 4 4 3 2 2 2 2 3 4 5 6 9 11
16 15 14 12 12 13 15 17 16 13 13 12 10 8 6 7 9 13 21 22 16 9 3 8 5 3 2 2 4 6 5 3 2 2 3 3 4 2 3 5 7 11 11
14 13 13 12 12 11 11 11 11 10 10 10 9 8 9 10 9 7 5 4 3 4 3 5 3 4 3 1 1 1 3 4 4 5 6 5 2 1 3 6 10 11 11
13 12 12 12 12 12 12 11 11 10 10 10 8 8 8 8 6 6 5 5 5 4 4 3 1 1 1 1 3 5 7 6 6 6 4 4 1 1 3 7 11 12 10
14 13 14 14 13 13 13 11 11 11 11 11 11 11 10 10 8 6 5 4 4 4 3 3 2 1 1 3 6 7 9 9 8 4 4 3 3 4 5 8 12 11 10
15 15 16 16 16 15 14 14 14 14 14 14 13 12 12 10 9 6 5 4 5 5 3 3 2 2 1 2 4 5 8 6 6 5 5 6 5 4 7 10 11 11 9
16 16 17 17 16 16 16 17 17 18 19 17 15 12 11 9 8 7 7 6 8 7 2 2 1 1 0 1 2 3 4 5 7 6 6 6 6 8 9 11 11 9 9
Wind_Direction
195 193 194 195 197 203 212 221 231 237 229 218 210 207 204 188 180 175 171 165 167 163 154 146 148 141 136 134 112 102 97 75 53 35 57 57 74 76 56 46 37 22 10
197 197 196 196 195 197 201 205 218 223 226 223 220 213 219 203 194 188 183 180 179 178 174 168 167 152 156 141 133 115 98 85 52 29 31 43 65 48 28 25 16 4 354
199 199 199 198 197 198 200 201 203 206 208 217 228 217 219 212 215 205 194 192 191 190 188 188 186 178 179 167 158 124 88 64 45 16 10 14 5 8 10 5 356 351 343
202 200 202 201 201 202 202 201 203 205 207 211 222 225 234 224 226 227 209 206 201 202 203 206 205 202 204 201 192 191 55 49 25 3 1 359 358 358 352 346 344 345 342
201 202 202 204 204 206 202 202 202 202 204 206 216 227 233 224 217 220 217 215 217 222 224 220 222 221 220 229 240 234 222 271 314 336 337 340 340 339 337 342 337 337 338
206 202 204 206 208 204 203 202 202 203 203 204 208 213 216 216 211 213 219 225 231 232 234 246 243 241 244 240 240 246 251 277 288 311 326 326 329 331 334 334 333 331 333
210 210 210 212 208 207 207 208 207 206 207 206 207 211 213 215 216 214 216 230 238 245 247 247 255 266 258 262 250 247 264 259 275 300 308 316 325 331 333 332 331 332 332
213 226 217 214 212 213 216 217 214 213 211 211 212 213 215 218 219 219 220 234 249 247 248 253 258 269 269 271 279 272 281 284 282 289 304 315 323 329 329 333 332 333 334
214 212 207 208 223 233 226 225 225 225 222 218 220 224 224 228 225 224 228 240 241 247 251 255 259 264 269 265 272 279 289 295 306 299 312 321 322 323 328 336 334 335 335
214 209 220 246 251 238 233 234 242 245 239 241 234 233 238 240 237 230 233 248 255 259 262 263 260 267 270 265 266 272 284 291 300 308 311 318 323 326 331 335 339 336 337
249 263 259 260 262 267 271 271 271 273 272 271 271 274 276 274 266 245 238 252 260 263 265 268 268 260 265 263 260 271 277 287 295 309 316 324 329 333 336 337 342 344 344
267 271 269 271 270 267 267 270 275 275 276 276 270 264 276 270 261 266 253 248 262 265 268 273 269 259 260 265 255 268 270 281 297 307 314 316 324 329 339 349 352 351 353
275 278 275 273 273 269 270 268 264 275 266 278 280 273 277 267 260 256 258 255 257 252 247 265 266 258 257 264 268 265 260 286 294 301 302 312 327 339 349 353 352 355 355
278 280 280 278 278 278 279 281 283 270 263 265 263 271 275 270 267 266 269 269 265 269 243 239 259 227 236 251 261 258 280 290 307 309 309 323 339 350 352 354 352 358 355
279 284 285 286 286 289 291 291 284 283 276 271 274 278 278 276 277 272 266 259 278 287 300 279 268 254 226 212 243 257 276 293 310 311 314 324 341 352 351 350 354 358 355
291 293 292 292 293 295 298 300 303 302 298 296 291 287 292 279 281 280 270 266 255 266 289 290 285 258 230 209 225 237 266 276 289 294 308 330 340 347 353 349 355 357 360
302 306 304 300 299 298 299 301 304 313 319 318 314 308 299 289 276 268 261 264 273 279 291 300 277 247 248 236 224 240 263 269 278 286 313 332 345 354 358 351 357 0 8
305 306 307 305 305 303 302 304 306 310 312 316 323 317 318 299 283 283 283 274 268 272 263 153 164 204 165 203 255 265 239 258 256 265 309 323 351 1 2 354 358 2 17
307 307 309 309 310 310 314 314 315 319 319 320 319 319 317 323 319 309 282 280 228 236 221 189 178 159 174 235 251 239 226 228 251 278 300 337 5 19 0 354 1 7 9
314 313 311 321 318 312 312 311 312 312 314 323 324 332 346 330 337 30 91 135 125 126 193 141 146 168 211 215 204 236 265 282 285 286 322 359 22 3 354 5 15 9 11
327 324 320 330 326 320 316 318 323 331 338 346 358 9 12 351 58 96 135 143 129 118 129 130 138 161 194 209 248 272 281 290 287 311 320 336 345 349 360 5 5 4 9
334 331 329 333 332 329 336 349 346 3 20 20 13 20 43 53 72 69 55 15 14 71 74 94 114 122 146 192 193 272 302 300 306 309 313 320 326 343 6 354 347 353 2
353 344 335 338 336 334 335 341 336 343 342 339 340 355 12 14 18 32 24 29 36 39 60 71 8 347 357 25 339 319 309 307 309 307 306 300 304 326 349 341 336 341 354
337 333 334 339 337 336 337 343 342 341 333 323 309 315 325 331 344 354 4 23 35 42 347 309 320 112 345 329 328 328 326 322 320 318 303 295 303 318 335 330 325 334 346
330 332 325 326 329 329 327 326 325 326 317 310 309 311 317 325 327 336 336 343 328 329 349 55 91 121 62 11 359 351 342 349 344 332 308 300 304 321 318 316 319 327 342
329 330 327 327 328 330 327 323 319 313 307 313 315 317 317 319 318 311 308 309 296 300 330 34 2 282 97 38 40 9 358 352 342 335 324 312 311 311 312 311 315 323 332